Time,TemperatureF,DewpointF,PressureIn,WindDirection,WindDirectionDegrees,WindSpeedMPH,WindSpeedGustMPH,Humidity,HourlyPrecipIn,Conditions,Clouds,dailyrainin,SoftwareType,DateUTC
2013-03-24 00:02:00,21.0,-99.9,-100.00,North,-999,-999.0,-999.0,-999,-99.99,,,0.00,,2013-03-24 06:02:00,
2013-03-24 00:12:00,21.0,-99.9,-100.00,North,-999,-999.0,-999.0,-999,-99.99,,,0.00,,2013-03-24 06:12:00,
2013-03-24 00:22:00,21.0,-99.9,-100.00,North,-999,-999.0,-999.0,-999,-99.99,,,0.00,,2013-03-24 06:22:00,
2013-03-24 00:30:00,19.0,-99.9,-100.00,North,-999,-999.0,-999.0,-999,0.01,,,0.01,,2013-03-24 06:30:00,
2013-03-24 00:53:00,19.0,-99.9,-100.00,North,-999,-999.0,-999.0,-999,0.01,,,0.01,,2013-03-24 06:53:00,
2013-03-24 01:03:00,19.0,-99.9,-100.00,North,-999,-999.0,-999.0,-999,0.01,,,0.01,,2013-03-24 07:03:00,
2013-03-24 01:12:00,19.0,-99.9,-100.00,North,-999,-999.0,-999.0,-999,0.01,,,0.01,,2013-03-24 07:12:00,
2013-03-24 01:22:00,19.0,-99.9,-100.00,North,-999,-999.0,-999.0,-999,0.01,,,0.01,,2013-03-24 07:22:00,
2013-03-24 01:30:00,18.0,-99.9,-100.00,North,-999,-999.0,-999.0,-999,0.00,,,0.01,,2013-03-24 07:30:00,
2013-03-24 01:53:00,18.0,-99.9,-100.00,North,-999,-999.0,-999.0,-999,0.00,,,0.01,,2013-03-24 07:53:00,
2013-03-24 02:03:00,18.0,-99.9,-100.00,North,-999,-999.0,-999.0,-999,0.00,,,0.01,,2013-03-24 08:03:00,
2013-03-24 02:12:00,18.0,-99.9,-100.00,North,-999,-999.0,-999.0,-999,0.00,,,0.01,,2013-03-24 08:12:00,
2013-03-24 02:22:00,18.0,-99.9,-100.00,North,-999,-999.0,-999.0,-999,0.00,,,0.01,,2013-03-24 08:22:00,
2013-03-24 02:30:00,19.0,-99.9,-100.00,North,-999,-999.0,-999.0,-999,0.00,,,-99.99,,2013-03-24 08:30:00,
2013-03-24 02:53:00,19.0,-99.9,-100.00,North,-999,-999.0,-999.0,-999,0.00,,,-99.99,,2013-03-24 08:53:00,
2013-03-24 03:02:00,19.0,-99.9,-100.00,North,-999,-999.0,-999.0,-999,0.00,,,-99.99,,2013-03-24 09:02:00,
2013-03-24 03:12:00,19.0,-99.9,-100.00,North,-999,-999.0,-999.0,-999,0.00,,,-99.99,,2013-03-24 09:12:00,
2013-03-24 03:22:00,19.0,-99.9,-100.00,North,-999,-999.0,-999.0,-999,0.00,,,-99.99,,2013-03-24 09:22:00,
2013-03-24 03:30:00,20.0,-99.9,-100.00,North,-999,-999.0,-999.0,-999,-99.99,,,0.00,,2013-03-24 09:30:00,
2013-03-24 03:53:00,20.0,-99.9,-100.00,North,-999,-999.0,-999.0,-999,-99.99,,,0.00,,2013-03-24 09:53:00,
2013-03-24 04:03:00,20.0,-99.9,-100.00,North,-999,-999.0,-999.0,-999,-99.99,,,0.00,,2013-03-24 10:03:00,
2013-03-24 04:13:00,20.0,-99.9,-100.00,North,-999,-999.0,-999.0,-999,-99.99,,,0.00,,2013-03-24 10:13:00,
2013-03-24 04:23:00,20.0,-99.9,-100.00,North,-999,-999.0,-999.0,-999,-99.99,,,0.00,,2013-03-24 10:23:00,
2013-03-24 04:30:00,20.0,-99.9,-100.00,North,-999,-999.0,-999.0,-999,0.00,,,0.00,,2013-03-24 10:30:00,
2013-03-24 04:53:00,20.0,-99.9,-100.00,North,-999,-999.0,-999.0,-999,0.00,,,0.00,,2013-03-24 10:53:00,
2013-03-24 05:03:00,20.0,-99.9,-100.00,North,-999,-999.0,-999.0,-999,0.00,,,0.00,,2013-03-24 11:03:00,
2013-03-24 05:12:00,20.0,-99.9,-100.00,North,-999,-999.0,-999.0,-999,0.00,,,0.00,,2013-03-24 11:12:00,
2013-03-24 05:22:00,20.0,-99.9,-100.00,North,-999,-999.0,-999.0,-999,0.00,,,0.00,,2013-03-24 11:22:00,
2013-03-24 05:30:00,20.0,-99.9,-100.00,North,-999,-999.0,-999.0,-999,0.00,,,0.00,,2013-03-24 11:30:00,
2013-03-24 05:53:00,20.0,-99.9,-100.00,North,-999,-999.0,-999.0,-999,0.00,,,0.00,,2013-03-24 11:53:00,
2013-03-24 06:03:00,20.0,-99.9,-100.00,North,-999,-999.0,-999.0,-999,0.00,,,0.00,,2013-03-24 12:03:00,
2013-03-24 06:13:00,20.0,-99.9,-100.00,North,-999,-999.0,-999.0,-999,0.00,,,0.00,,2013-03-24 12:13:00,
2013-03-24 06:23:00,20.0,-99.9,-100.00,North,-999,-999.0,-999.0,-999,0.00,,,0.00,,2013-03-24 12:23:00,
2013-03-24 06:30:00,21.0,-99.9,-100.00,North,-999,-999.0,-999.0,-999,0.00,,,-99.99,,2013-03-24 12:30:00,
2013-03-24 06:53:00,21.0,-99.9,-100.00,North,-999,-999.0,-999.0,-999,0.00,,,-99.99,,2013-03-24 12:53:00,
2013-03-24 07:03:00,21.0,-99.9,-100.00,North,-999,-999.0,-999.0,-999,0.00,,,-99.99,,2013-03-24 13:03:00,
2013-03-24 07:13:00,21.0,-99.9,-100.00,North,-999,-999.0,-999.0,-999,0.00,,,-99.99,,2013-03-24 13:13:00,
2013-03-24 07:23:00,21.0,-99.9,-100.00,North,-999,-999.0,-999.0,-999,0.00,,,-99.99,,2013-03-24 13:23:00,
2013-03-24 07:30:00,20.0,-99.9,-100.00,North,-999,-999.0,-999.0,-999,0.00,,,-99.99,,2013-03-24 13:30:00,
2013-03-24 07:53:00,20.0,-99.9,-100.00,North,-999,-999.0,-999.0,-999,0.00,,,-99.99,,2013-03-24 13:53:00,
2013-03-24 08:03:00,20.0,-99.9,-100.00,North,-999,-999.0,-999.0,-999,0.00,,,-99.99,,2013-03-24 14:03:00,
2013-03-24 08:13:00,20.0,-99.9,-100.00,North,-999,-999.0,-999.0,-999,0.00,,,-99.99,,2013-03-24 14:13:00,
2013-03-24 08:22:00,20.0,-99.9,-100.00,North,-999,-999.0,-999.0,-999,0.00,,,-99.99,,2013-03-24 14:22:00,
2013-03-24 08:30:00,20.0,-99.9,-100.00,North,-999,-999.0,-999.0,-999,0.00,,,0.01,,2013-03-24 14:30:00,
2013-03-24 08:53:00,20.0,-99.9,-100.00,North,-999,-999.0,-999.0,-999,0.00,,,0.01,,2013-03-24 14:53:00,
2013-03-24 09:02:00,20.0,-99.9,-100.00,North,-999,-999.0,-999.0,-999,0.00,,,0.01,,2013-03-24 15:02:00,
2013-03-24 09:13:00,20.0,-99.9,-100.00,North,-999,-999.0,-999.0,-999,0.00,,,0.01,,2013-03-24 15:13:00,
2013-03-24 09:23:00,20.0,-99.9,-100.00,North,-999,-999.0,-999.0,-999,0.00,,,0.01,,2013-03-24 15:23:00,
2013-03-24 09:30:00,21.0,-99.9,-100.00,North,-999,-999.0,-999.0,-999,0.00,,,0.00,,2013-03-24 15:30:00,
2013-03-24 09:53:00,21.0,-99.9,-100.00,North,-999,-999.0,-999.0,-999,0.00,,,0.00,,2013-03-24 15:53:00,
2013-03-24 10:03:00,21.0,-99.9,-100.00,North,-999,-999.0,-999.0,-999,0.00,,,0.00,,2013-03-24 16:03:00,
2013-03-24 10:13:00,21.0,-99.9,-100.00,North,-999,-999.0,-999.0,-999,0.00,,,0.00,,2013-03-24 16:13:00,
2013-03-24 10:23:00,21.0,-99.9,-100.00,North,-999,-999.0,-999.0,-999,0.00,,,0.00,,2013-03-24 16:23:00,
2013-03-24 10:30:00,23.0,-99.9,-100.00,North,-999,-999.0,-999.0,-999,0.00,,,0.00,,2013-03-24 16:30:00,
2013-03-24 10:53:00,23.0,-99.9,-100.00,North,-999,-999.0,-999.0,-999,0.00,,,0.00,,2013-03-24 16:53:00,
2013-03-24 11:03:00,23.0,-99.9,-100.00,North,-999,-999.0,-999.0,-999,0.00,,,0.00,,2013-03-24 17:03:00,
2013-03-24 11:13:00,23.0,-99.9,-100.00,North,-999,-999.0,-999.0,-999,0.00,,,0.00,,2013-03-24 17:13:00,
2013-03-24 11:23:00,23.0,-99.9,-100.00,North,-999,-999.0,-999.0,-999,0.00,,,0.00,,2013-03-24 17:23:00,
2013-03-24 11:30:00,26.0,-99.9,-100.00,North,-999,-999.0,-999.0,-999,0.00,,,0.00,,2013-03-24 17:30:00,
2013-03-24 12:03:00,26.0,-99.9,-100.00,North,-999,-999.0,-999.0,-999,0.00,,,0.00,,2013-03-24 18:03:00,
2013-03-24 12:13:00,26.0,-99.9,-100.00,North,-999,-999.0,-999.0,-999,0.00,,,0.00,,2013-03-24 18:13:00,
2013-03-24 12:22:00,26.0,-99.9,-100.00,North,-999,-999.0,-999.0,-999,0.00,,,0.00,,2013-03-24 18:22:00,
2013-03-24 13:30:00,31.0,-99.9,-100.00,North,-999,-999.0,-999.0,-999,0.00,,,0.00,,2013-03-24 19:30:00,
2013-03-24 13:53:00,31.0,-99.9,-100.00,North,-999,-999.0,-999.0,-999,0.00,,,0.00,,2013-03-24 19:53:00,
2013-03-24 14:03:00,31.0,-99.9,-100.00,North,-999,-999.0,-999.0,-999,0.00,,,0.00,,2013-03-24 20:03:00,
2013-03-24 14:13:00,31.0,-99.9,-100.00,North,-999,-999.0,-999.0,-999,0.00,,,0.00,,2013-03-24 20:13:00,
2013-03-24 14:23:00,31.0,-99.9,-100.00,North,-999,-999.0,-999.0,-999,0.00,,,0.00,,2013-03-24 20:23:00,
2013-03-24 14:30:00,33.0,-99.9,-100.00,North,-999,-999.0,-999.0,-999,0.00,,,0.00,,2013-03-24 20:30:00,
2013-03-24 14:53:00,33.0,-99.9,-100.00,North,-999,-999.0,-999.0,-999,0.00,,,0.00,,2013-03-24 20:53:00,
2013-03-24 15:03:00,33.0,-99.9,-100.00,North,-999,-999.0,-999.0,-999,0.00,,,0.00,,2013-03-24 21:03:00,
2013-03-24 15:12:00,33.0,-99.9,-100.00,North,-999,-999.0,-999.0,-999,0.00,,,0.00,,2013-03-24 21:12:00,
2013-03-24 15:23:00,33.0,-99.9,-100.00,North,-999,-999.0,-999.0,-999,0.00,,,0.00,,2013-03-24 21:23:00,
2013-03-24 15:30:00,36.0,-99.9,-100.00,North,-999,-999.0,-999.0,-999,0.01,,,0.00,,2013-03-24 21:30:00,
2013-03-24 15:53:00,36.0,-99.9,-100.00,North,-999,-999.0,-999.0,-999,0.01,,,0.00,,2013-03-24 21:53:00,
2013-03-24 16:03:00,36.0,-99.9,-100.00,North,-999,-999.0,-999.0,-999,0.01,,,0.00,,2013-03-24 22:03:00,
2013-03-24 16:13:00,36.0,-99.9,-100.00,North,-999,-999.0,-999.0,-999,0.01,,,0.00,,2013-03-24 22:13:00,
2013-03-24 16:23:00,36.0,-99.9,-100.00,North,-999,-999.0,-999.0,-999,0.01,,,0.00,,2013-03-24 22:23:00,
2013-03-24 16:30:00,36.0,-99.9,-100.00,North,-999,-999.0,-999.0,-999,0.01,,,0.01,,2013-03-24 22:30:00,
2013-03-24 17:03:00,36.0,-99.9,-100.00,North,-999,-999.0,-999.0,-999,0.01,,,0.01,,2013-03-24 23:03:00,
2013-03-24 17:12:00,36.0,-99.9,-100.00,North,-999,-999.0,-999.0,-999,0.01,,,0.01,,2013-03-24 23:12:00,
2013-03-24 17:23:00,36.0,-99.9,-100.00,North,-999,-999.0,-999.0,-999,0.01,,,0.01,,2013-03-24 23:23:00,
2013-03-24 17:30:00,35.0,-99.9,-100.00,North,-999,-999.0,-999.0,-999,-99.99,,,-99.99,,2013-03-24 23:30:00,
2013-03-24 17:53:00,35.0,-99.9,-100.00,North,-999,-999.0,-999.0,-999,-99.99,,,-99.99,,2013-03-24 23:53:00,
2013-03-24 18:02:00,35.0,-99.9,-100.00,North,-999,-999.0,-999.0,-999,-99.99,,,-99.99,,2013-03-25 00:02:00,
2013-03-24 18:12:00,35.0,-99.9,-100.00,North,-999,-999.0,-999.0,-999,-99.99,,,-99.99,,2013-03-25 00:12:00,
2013-03-24 18:23:00,35.0,-99.9,-100.00,North,-999,-999.0,-999.0,-999,-99.99,,,-99.99,,2013-03-25 00:23:00,
2013-03-24 18:30:00,34.0,-99.9,-100.00,North,-999,-999.0,-999.0,-999,0.00,,,0.01,,2013-03-25 00:30:00,
2013-03-24 19:02:00,34.0,-99.9,-100.00,North,-999,-999.0,-999.0,-999,0.00,,,0.01,,2013-03-25 01:02:00,
2013-03-24 19:12:00,34.0,-99.9,-100.00,North,-999,-999.0,-999.0,-999,0.00,,,0.01,,2013-03-25 01:12:00,
2013-03-24 19:22:00,34.0,-99.9,-100.00,North,-999,-999.0,-999.0,-999,0.00,,,0.01,,2013-03-25 01:22:00,
2013-03-24 19:30:00,30.0,-99.9,-100.00,North,-999,-999.0,-999.0,-999,0.01,,,0.02,,2013-03-25 01:30:00,
2013-03-24 19:53:00,30.0,-99.9,-100.00,North,-999,-999.0,-999.0,-999,0.01,,,0.02,,2013-03-25 01:53:00,
2013-03-24 20:03:00,30.0,-99.9,-100.00,North,-999,-999.0,-999.0,-999,0.01,,,0.02,,2013-03-25 02:03:00,
2013-03-24 20:12:00,30.0,-99.9,-100.00,North,-999,-999.0,-999.0,-999,0.01,,,0.02,,2013-03-25 02:12:00,
2013-03-24 20:23:00,30.0,-99.9,-100.00,North,-999,-999.0,-999.0,-999,0.01,,,0.02,,2013-03-25 02:23:00,
2013-03-24 20:30:00,28.0,-99.9,-100.00,North,-999,-999.0,-999.0,-999,-99.99,,,0.01,,2013-03-25 02:30:00,
2013-03-24 20:53:00,28.0,-99.9,-100.00,North,-999,-999.0,-999.0,-999,-99.99,,,0.01,,2013-03-25 02:53:00,
2013-03-24 21:03:00,28.0,-99.9,-100.00,North,-999,-999.0,-999.0,-999,-99.99,,,0.01,,2013-03-25 03:03:00,
2013-03-24 21:13:00,28.0,-99.9,-100.00,North,-999,-999.0,-999.0,-999,-99.99,,,0.01,,2013-03-25 03:13:00,
2013-03-24 21:23:00,28.0,-99.9,-100.00,North,-999,-999.0,-999.0,-999,-99.99,,,0.01,,2013-03-25 03:23:00,
2013-03-24 21:30:00,27.0,-99.9,-100.00,North,-999,-999.0,-999.0,-999,0.01,,,0.01,,2013-03-25 03:30:00,
2013-03-24 21:53:00,27.0,-99.9,-100.00,North,-999,-999.0,-999.0,-999,0.01,,,0.01,,2013-03-25 03:53:00,
2013-03-24 22:03:00,27.0,-99.9,-100.00,North,-999,-999.0,-999.0,-999,0.01,,,0.01,,2013-03-25 04:03:00,
2013-03-24 22:13:00,27.0,-99.9,-100.00,North,-999,-999.0,-999.0,-999,0.01,,,0.01,,2013-03-25 04:13:00,
2013-03-24 22:23:00,27.0,-99.9,-100.00,North,-999,-999.0,-999.0,-999,0.01,,,0.01,,2013-03-25 04:23:00,
2013-03-24 23:30:00,25.0,-99.9,-100.00,North,-999,-999.0,-999.0,-999,0.01,,,0.01,,2013-03-25 05:30:00,